265P/LINEAR (2003)

Japanese version
Home page
Updated on July 8, 2012

---------------------------------------------------------------------

* Profile

Designation 265P/2003 O2
Discovery Date July 29, 2003
Magnitude 18.6 mag
Discoverer Lincoln Laboratory Near-Earth Asteroid Research project

* Pictures

* Orbital Elements

Epoch 2003 Aug. 29.0 TT = JDT 2452880.5
T 2003 Sept. 5.80930 TT                                 MPC
q   1.5054541            (2000.0)            P               Q
n   0.11235852     Peri.   32.72085     +0.94941220     -0.30682985
a   4.2533591      Node   344.71136     +0.20468586     +0.76612920
e   0.6460552      Incl.   14.69125     +0.23815998     +0.56471364
P   8.77
From 441 observations 2003 July 30-2012 June 23, mean residual 0".6.

* Finding Charts

* Magnitudes Graph

        m1 = 12.0 + 5 log d + 25.0 log r

---------------------------------------------------------------------

The orbital elements are published on M.P.E.C. 2012-N02.
The charts are made with StellaNavigator Ver.2.0 for Windows (AstroArts / ASCII).
The magnitudes graphs are made with Comet for Windows.

---------------------------------------------------------------------

Copyright(C) Seiichi Yoshida (comet@aerith.net). All rights reserved.